Gastonia, NC

8:33 AM EST on December 06, 2019 (GMT -0500)
Gastonia Municipal

Weather History for KAKH - November, 2019

Change the Weather History Date:

Saturday, November 16, 2019

  Actual Average (KCLT) Record (KCLT)
Temperature  
Mean Temperature 50 °F -  
Max Temperature 55 °F 61 °F 82 °F (1958)
Min Temperature 45 °F 39 °F 22 °F (1969)
Degree Days  
Heating Degree Days 14    
Moisture  
Dew Point 27 °F    
Average Humidity 42    
Maximum Humidity 52    
Minimum Humidity 37    
Precipitation  
Precipitation 0.01 in - - ()
Sea Level Pressure  
Sea Level Pressure 30.09 in    
Wind  
Wind Speed 13 mph ()    
Max Wind Speed 21 mph    
Max Gust Speed 30 mph    
Visibility 10.0 miles    
Events Rain    
Averages and records for this station are not official NWS values.
T = Trace of Precipitation, MM = Missing Value Source: Averaged Metar Reports

Daily Weather History Graph

Daily Weather History Graph

Search for Another Location

Airport or City:

Astronomy

Nov. 16, 2019 Rise Set
Actual Time 7:00 AM EST 5:18 PM EST
Civil Twilight 6:33 AM EST 5:45 PM EST
Nautical Twilight 6:02 AM EST 6:15 PM EST
Astronomical Twilight 5:32 AM EST 6:45 PM EST
Moon 8:53 PM EST (11/16) 10:48 AM EST (11/16)
Length of Visible Light 11h 11m
Length of Day
10h 17m
Waning Gibbous, 82% of the Moon is Illuminated
Nov 16
Waning Gibbous
Nov 19
Last Quarter
Nov 26
New
Dec 4
First Quarter
Dec 12
Full

Hourly Weather History & Observations

Time (EST) Temp. Windchill Dew Point Humidity Pressure Visibility Wind Dir Wind Speed Gust Speed Precip Events Conditions
12:54 AM 46.9 °F - 30.0 °F 52% 30.07 in 10.0 mi North 6.9 mph - 0.01 in Rain Light Rain
1:54 AM 48.9 °F - 26.1 °F 41% 30.06 in 10.0 mi NNE 11.5 mph - 0.00 in   Overcast
2:54 AM 50.0 °F - 25.0 °F 38% 30.05 in 10.0 mi NNE 16.1 mph - N/A   Overcast
3:54 AM 50.0 °F - 25.0 °F 38% 30.04 in 10.0 mi NNE 15.0 mph 25.3 mph N/A   Overcast
4:54 AM 48.9 °F - 25.0 °F 39% 30.05 in 10.0 mi NNE 15.0 mph 27.6 mph N/A   Mostly Cloudy
5:54 AM 48.9 °F - 25.0 °F 39% 30.07 in 10.0 mi NNE 13.8 mph 25.3 mph N/A   Overcast
6:54 AM 48.9 °F - 26.1 °F 41% 30.09 in 10.0 mi NNE 18.4 mph 27.6 mph N/A   Overcast
7:54 AM 48.9 °F - 25.0 °F 39% 30.10 in 10.0 mi NNE 17.3 mph 26.5 mph N/A   Overcast
8:54 AM 48.9 °F - 26.1 °F 41% 30.12 in 10.0 mi NNE 15.0 mph 26.5 mph N/A   Overcast
9:54 AM 48.9 °F - 26.1 °F 41% 30.13 in 10.0 mi NE 20.7 mph 29.9 mph N/A   Overcast
10:54 AM 48.9 °F - 27.0 °F 43% 30.14 in 10.0 mi NNE 18.4 mph 28.8 mph N/A   Overcast
11:54 AM 50.0 °F - 28.0 °F 43% 30.13 in 10.0 mi NNE 19.6 mph 27.6 mph N/A   Overcast
12:54 PM 54.0 °F - 28.9 °F 38% 30.08 in 10.0 mi North 16.1 mph 21.9 mph N/A   Mostly Cloudy
1:54 PM 55.0 °F - 28.9 °F 37% 30.06 in 10.0 mi NNE 15.0 mph 26.5 mph N/A   Overcast
2:54 PM 55.0 °F - 28.9 °F 37% 30.07 in 10.0 mi NE 13.8 mph 23.0 mph N/A   Overcast
3:54 PM 53.1 °F - 28.9 °F 40% 30.08 in 10.0 mi NE 16.1 mph 23.0 mph N/A   Overcast
4:54 PM 52.0 °F - 28.0 °F 40% 30.08 in 10.0 mi NE 16.1 mph - N/A   Overcast
5:54 PM 52.0 °F - 27.0 °F 38% 30.09 in 10.0 mi NNE 9.2 mph - N/A   Overcast
6:54 PM 50.0 °F - 27.0 °F 41% 30.10 in 10.0 mi NNE 16.1 mph 25.3 mph N/A   Overcast
7:54 PM 48.9 °F - 27.0 °F 43% 30.12 in 10.0 mi NNE 13.8 mph 26.5 mph N/A   Mostly Cloudy
8:54 PM 46.9 °F - 27.0 °F 46% 30.13 in 10.0 mi NE 16.1 mph 24.2 mph N/A   Overcast
9:54 PM 46.9 °F - 28.0 °F 48% 30.14 in 10.0 mi NNE 12.7 mph 20.7 mph N/A   Mostly Cloudy
10:54 PM 46.9 °F - 28.0 °F 48% 30.13 in 10.0 mi NNE 12.7 mph 23.0 mph N/A   Overcast
11:54 PM 45.0 °F 37.6 °F 27.0 °F 49% 30.13 in 10.0 mi NE 17.3 mph - N/A   Overcast